Soldotna, AK

7:44 PM AKDT on August 24, 2016 (GMT -0800)
Soldotna

Weather History for PASX - September, 2012

Change the Weather History Date:

Tuesday, September 11, 2012

  Actual Average Record
Temperature  
Mean Temperature 42 °F -  
Max Temperature 55 °F 56 °F 65 °F (1968)
Min Temperature 28 °F 39 °F 24 °F (1992)
Degree Days  
Heating Degree Days 24    
Moisture  
Dew Point 33 °F    
Average Humidity 76    
Maximum Humidity 93    
Minimum Humidity 44    
Precipitation  
Precipitation 0.00 in - - ()
Sea Level Pressure  
Sea Level Pressure 29.78 in    
Wind  
Wind Speed 4 mph (ENE)    
Max Wind Speed 14 mph    
Max Gust Speed 17 mph    
Visibility 10 miles    
Events      
Averages and records for this station are not official NWS values.
T = Trace of Precipitation, MM = Missing Value Source: NWS Daily Summary

Daily Weather History Graph

Daily Weather History Graph

Search for Another Location

Airport or City:

Trip Planner

Search our weather history database for the weather conditions in past years. The results will help you decide how hot, cold, wet, or windy it might be!

Date:

Astronomy

Sep. 11, 2012 Rise Set
Actual Time 7:23 AM AKDT 8:35 PM AKDT
Civil Twilight 6:40 AM AKDT 9:19 PM AKDT
Nautical Twilight 5:45 AM AKDT 10:12 PM AKDT
Astronomical Twilight 4:42 AM AKDT 11:15 PM AKDT
Moon 1:50 AM AKDT (9/11) 6:42 PM AKDT (9/11)
Length of Visible Light 14h 38m
Length of Day
13h 12m
Waning Crescent, 20% of the Moon is Illuminated
Sep 11
Waning Crescent
Sep 15
New
Sep 22
First Quarter
Sep 29
Full
Oct 7
Last Quarter

Hourly Weather History & Observations

Time (AKDT) Temp. Windchill Dew Point Humidity Pressure Visibility Wind Dir Wind Speed Gust Speed Precip Events Conditions
12:16 AM 33.8 °F - 30.2 °F 87% 29.81 in - Calm Calm - N/A   Unknown
12:36 AM 33.8 °F - 28.4 °F 81% 29.82 in - Calm Calm - N/A   Clear
12:56 AM 33.8 °F - 30.2 °F 87% 29.82 in 10.0 mi Calm Calm - N/A   Clear
1:16 AM 33.8 °F 29.6 °F 30.2 °F 87% 29.82 in - East 4.6 mph - N/A   Unknown
1:36 AM 33.8 °F 30.8 °F 32.0 °F 93% 29.82 in 10.0 mi ENE 3.5 mph - N/A   Clear
1:56 AM 30.2 °F - 28.4 °F 93% 29.82 in 10.0 mi Calm Calm - N/A   Clear
2:16 AM 30.2 °F 25.4 °F 28.4 °F 93% 29.82 in 10.0 mi East 4.6 mph - N/A   Clear
2:36 AM 32.0 °F 27.5 °F 28.4 °F 87% 29.82 in 10.0 mi East 4.6 mph - N/A   Clear
2:56 AM 30.2 °F 26.7 °F 28.4 °F 93% 29.82 in 10.0 mi East 3.5 mph - N/A   Clear
3:16 AM 30.2 °F 25.4 °F 28.4 °F 93% 29.83 in 10.0 mi East 4.6 mph - N/A   Clear
3:36 AM 32.0 °F 27.5 °F 28.4 °F 87% 29.83 in 10.0 mi East 4.6 mph - N/A   Clear
3:56 AM 30.2 °F 25.4 °F 28.4 °F 93% 29.83 in 10.0 mi East 4.6 mph - N/A   Clear
4:36 AM 30.2 °F 24.3 °F 26.6 °F 86% 29.84 in 10.0 mi East 5.8 mph - N/A   Clear
4:56 AM 30.2 °F 25.4 °F 28.4 °F 93% 29.83 in 10.0 mi East 4.6 mph - N/A   Clear
5:16 AM 30.2 °F 25.4 °F 26.6 °F 86% 29.83 in 10.0 mi East 4.6 mph - N/A   Clear
5:36 AM 30.2 °F 25.4 °F 26.6 °F 86% 29.83 in 10.0 mi East 4.6 mph - N/A   Clear
5:56 AM 30.2 °F 25.4 °F 26.6 °F 86% 29.83 in 10.0 mi East 4.6 mph - N/A   Clear
6:16 AM 28.4 °F 23.3 °F 26.6 °F 93% 29.83 in 10.0 mi East 4.6 mph - N/A   Clear
6:36 AM 28.4 °F 23.3 °F 26.6 °F 93% 29.83 in 10.0 mi East 4.6 mph - N/A   Clear
6:56 AM 28.4 °F 23.3 °F 26.6 °F 93% 29.83 in 10.0 mi East 4.6 mph - N/A   Clear
7:16 AM 28.4 °F 23.3 °F 26.6 °F 93% 29.83 in 10.0 mi East 4.6 mph - N/A   Clear
7:36 AM 28.4 °F 24.6 °F 26.6 °F 93% 29.83 in 10.0 mi East 3.5 mph - N/A   Clear
7:56 AM 30.2 °F 24.3 °F 26.6 °F 86% 29.83 in 10.0 mi East 5.8 mph - N/A   Scattered Clouds
8:16 AM 30.2 °F 24.3 °F 26.6 °F 86% 29.83 in 10.0 mi East 5.8 mph - N/A   Mostly Cloudy
8:36 AM 30.2 °F 25.4 °F 26.6 °F 86% 29.83 in 10.0 mi East 4.6 mph - N/A   Mostly Cloudy
8:56 AM 32.0 °F 27.5 °F 26.6 °F 80% 29.83 in 10.0 mi East 4.6 mph - N/A   Overcast
9:16 AM 32.0 °F 27.5 °F 28.4 °F 87% 29.83 in 10.0 mi East 4.6 mph - N/A   Overcast
9:36 AM 33.8 °F 30.8 °F 28.4 °F 81% 29.83 in 10.0 mi ENE 3.5 mph - N/A   Overcast
9:56 AM 33.8 °F 29.6 °F 30.2 °F 87% 29.83 in 10.0 mi East 4.6 mph - N/A   Overcast
10:16 AM 35.6 °F - 30.2 °F 81% 29.83 in 10.0 mi Calm Calm - N/A   Overcast
10:36 AM 35.6 °F 32.8 °F 30.2 °F 81% 29.83 in 10.0 mi East 3.5 mph - N/A   Overcast
10:56 AM 37.4 °F 34.9 °F 30.2 °F 75% 29.83 in 10.0 mi East 3.5 mph - N/A   Overcast
11:16 AM 37.4 °F 34.9 °F 30.2 °F 75% 29.83 in 10.0 mi East 3.5 mph - N/A   Overcast
11:36 AM 37.4 °F - 32.0 °F 81% 29.83 in 10.0 mi Calm Calm - N/A   Overcast
11:56 AM 39.2 °F - 33.8 °F 81% 29.82 in 10.0 mi Calm Calm - N/A   Overcast
12:16 PM 42.8 °F - 35.6 °F 76% 29.81 in 10.0 mi Calm Calm - N/A   Overcast
12:36 PM 46.4 °F - 39.2 °F 76% 29.80 in 10.0 mi Calm Calm - N/A   Overcast
12:56 PM 50.0 °F - 39.2 °F 66% 29.80 in 10.0 mi NNE 4.6 mph - N/A   Overcast
1:16 PM 51.8 °F - 37.4 °F 58% 29.79 in 10.0 mi NE 5.8 mph - N/A   Overcast
1:36 PM 53.6 °F - 35.6 °F 51% 29.79 in 10.0 mi NE 5.8 mph - N/A   Overcast
1:56 PM 55.4 °F - 35.6 °F 47% 29.78 in 10.0 mi East 12.7 mph - N/A   Overcast
2:16 PM 55.4 °F - 33.8 °F 44% 29.77 in 10.0 mi East 8.1 mph 16.1 mph N/A   Overcast
2:36 PM 55.4 °F - 33.8 °F 44% 29.77 in 10.0 mi East 6.9 mph - N/A   Overcast
2:56 PM 55.4 °F - 33.8 °F 44% 29.76 in 10.0 mi East 9.2 mph - N/A   Overcast
3:16 PM 55.4 °F - 35.6 °F 47% 29.75 in 10.0 mi ENE 9.2 mph - N/A   Overcast
3:36 PM 55.4 °F - 33.8 °F 44% 29.74 in 10.0 mi ENE 11.5 mph - N/A   Overcast
3:56 PM 55.4 °F - 35.6 °F 47% 29.74 in 10.0 mi ENE 10.4 mph - N/A   Overcast
4:16 PM 55.4 °F - 35.6 °F 47% 29.73 in 10.0 mi East 10.4 mph - N/A   Overcast
4:36 PM 55.4 °F - 33.8 °F 44% 29.73 in 10.0 mi East 10.4 mph - N/A   Overcast
4:56 PM 53.6 °F - 35.6 °F 51% 29.73 in 10.0 mi East 8.1 mph - N/A   Overcast
5:16 PM 53.6 °F - 35.6 °F 51% 29.73 in 10.0 mi East 11.5 mph - N/A   Overcast
5:36 PM 53.6 °F - 35.6 °F 51% 29.72 in 10.0 mi ESE 12.7 mph 16.1 mph N/A   Overcast
5:56 PM 53.6 °F - 35.6 °F 51% 29.72 in 10.0 mi East 11.5 mph - N/A   Overcast
6:16 PM 51.8 °F - 37.4 °F 58% 29.72 in 10.0 mi East 11.5 mph - N/A   Overcast
6:36 PM 51.8 °F - 37.4 °F 58% 29.72 in 10.0 mi East 13.8 mph 17.3 mph N/A   Overcast
6:56 PM 48.2 °F - 39.2 °F 71% 29.72 in 10.0 mi East 9.2 mph - N/A   Overcast
7:16 PM 48.2 °F - 39.2 °F 71% 29.72 in 10.0 mi East 9.2 mph - N/A   Overcast
7:36 PM 48.2 °F - 39.2 °F 71% 29.72 in 10.0 mi East 5.8 mph - N/A   Overcast
7:56 PM 48.2 °F - 39.2 °F 71% 29.72 in 10.0 mi ENE 5.8 mph - N/A   Overcast
8:16 PM 48.2 °F - 41.0 °F 76% 29.71 in 8.0 mi NE 5.8 mph - N/A   Overcast
8:36 PM 46.4 °F 42.9 °F 41.0 °F 81% 29.71 in 10.0 mi NE 6.9 mph - N/A   Overcast
8:56 PM 46.4 °F 44.3 °F 42.8 °F 87% 29.71 in 10.0 mi NE 4.6 mph - N/A   Overcast
9:16 PM 46.4 °F 42.9 °F 41.0 °F 81% 29.71 in 10.0 mi NE 6.9 mph - N/A   Overcast
9:36 PM 46.4 °F 42.9 °F 42.8 °F 87% 29.70 in 10.0 mi NE 6.9 mph - N/A   Overcast
9:56 PM 46.4 °F 42.4 °F 42.8 °F 87% 29.69 in 10.0 mi NNE 8.1 mph - N/A   Overcast
10:16 PM 46.4 °F 43.5 °F 42.8 °F 87% 29.69 in 10.0 mi NNE 5.8 mph - N/A   Overcast
10:36 PM 46.4 °F 43.5 °F 42.8 °F 87% 29.69 in 10.0 mi NE 5.8 mph - N/A   Overcast
10:56 PM 46.4 °F 42.9 °F 42.8 °F 87% 29.68 in 10.0 mi NE 6.9 mph - N/A   Overcast
11:16 PM 46.4 °F 43.5 °F 42.8 °F 87% 29.68 in 10.0 mi NE 5.8 mph - N/A   Overcast
11:36 PM 46.4 °F 42.4 °F 42.8 °F 87% 29.67 in 10.0 mi NE 8.1 mph - N/A   Overcast
11:56 PM 46.4 °F 42.9 °F 42.8 °F 87% 29.67 in 10.0 mi NE 6.9 mph - N/A   Overcast